Location: Kimberly
(42.5380°N, 114.3640°W)
Time: 18:36:45
(UTC-07:00)

Tiangong - Visible Passes

Search period start: 07 December 2021 00:00
Search period end: 17 December 2021 00:00
Orbit: 379 x 385 km, 41.5° (Epoch: 07 December)

Date Brightness Start Highest point End Pass type
(mag) Time Alt. Az. Time Alt. Az. Time Alt. Az.
07 Dec 3.3 19:07:08 10° SSW 19:08:30 18° S 19:08:30 18° S visible
08 Dec 3.4 18:07:34 10° S 18:09:24 15° SSE 18:10:59 11° ESE visible
08 Dec 4.3 19:42:41 10° WSW 19:43:09 13° WSW 19:43:09 13° WSW visible
09 Dec 2.1 18:42:24 10° SW 18:45:18 34° SSE 18:45:34 33° SSE visible
10 Dec 2.9 17:42:22 10° SSW 17:44:55 22° SSE 17:47:28 10° E visible
10 Dec 2.9 19:18:15 10° WSW 19:20:05 30° WSW 19:20:05 30° WSW visible
11 Dec 1.7 18:17:50 10° WSW 18:20:52 47° SSE 18:22:24 25° ESE visible
11 Dec 4.7 19:54:24 10° W 19:54:34 11° W 19:54:34 11° W visible
12 Dec 1.1 18:53:50 10° W 18:56:52 71° SSW 18:56:52 71° SSW visible
13 Dec 1.4 17:53:17 10° WSW 17:56:25 62° S 17:59:09 13° E visible
13 Dec 3.6 19:29:58 10° W 19:31:19 23° W 19:31:19 23° W visible
14 Dec 1.1 18:29:21 10° W 18:32:30 74° S 18:33:37 36° ESE visible
15 Dec 1.9 19:05:28 10° W 19:08:07 48° SW 19:08:07 48° SW visible
16 Dec 1.3 18:04:48 10° W 18:07:57 67° S 18:10:32 14° ESE visible
16 Dec 4.1 19:41:45 10° W 19:42:42 16° WSW 19:42:42 16° WSW visible
